KB3YPI Weather Reports


Display with metric or nautical units.
time (UTC)temp
F
wind
direction
speed
MPH
gust
MPH
rain 1hr
in
rain 24hr
in
rain mn
in
humidity
%
barometer
mb
20260504081526 36 250 0.0 0.0 0.00 0.00 0.00 89 1013.7
20260504081026 36 250 0.0 0.0 0.00 0.00 0.00 89 1013.7
20260504080625 37 250 0.0 0.0 0.00 0.00 0.00 89 1013.7
20260504050525 41 250 0.0 0.0 0.00 0.00 0.00 84 1013.7
20260504050024 41 250 0.0 0.0 0.00 0.00 0.00 83 1013.7
20260504045523 41 250 0.0 0.0 0.00 0.00 0.00 82 1013.7
20260504045023 41 250 0.0 0.0 0.00 0.00 0.00 82 1013.7
20260504044533 41 250 0.0 0.0 0.00 0.00 0.00 82 1013.7
20260504044022 42 250 0.0 0.0 0.00 0.00 0.00 81 1013.6
20260504043522 42 250 0.0 0.0 0.00 0.00 0.00 81 1013.6
20260504043024 42 250 0.0 0.0 0.00 0.00 0.00 81 1013.6
20260504042521 42 250 0.0 0.0 0.00 0.00 0.00 80 1013.6
20260504042020 42 250 0.0 0.0 0.00 0.00 0.00 79 1013.6
20260504041520 42 250 0.0 0.0 0.00 0.00 0.00 79 1013.6
20260504041019 42 250 0.0 0.0 0.00 0.00 0.00 79 1013.6
20260504040519 42 250 0.0 0.0 0.00 0.00 0.00 78 1013.6
20260504040015 42 250 0.0 0.0 0.00 0.00 0.00 79 1013.6
20260504035515 42 250 0.0 0.0 0.00 0.00 0.00 77 1013.6
20260504035015 42 250 0.0 0.0 0.00 0.00 0.00 77 1013.5
20260504034515 42 250 0.0 0.0 0.00 0.00 0.00 78 1013.5
20260504034014 42 250 0.0 0.0 0.00 0.00 0.00 77 1013.5
20260504033515 43 250 0.0 0.0 0.00 0.00 0.00 76 1013.4
20260504033014 43 250 0.0 0.0 0.00 0.00 0.00 76 1013.4
20260504032514 43 250 0.0 0.0 0.00 0.00 0.00 76 1013.4
20260504032016 43 250 0.0 0.0 0.00 0.00 0.00 75 1013.4
20260504031514 43 250 0.0 0.0 0.00 0.00 0.00 75 1013.4
20260504031013 44 249 0.0 0.0 0.00 0.00 0.00 74 1013.3
20260504030512 44 249 0.0 0.0 0.00 0.00 0.00 74 1013.3
20260504030009 44 249 0.0 0.0 0.00 0.00 0.00 72 1013.2
20260504025510 44 248 0.0 0.0 0.00 0.00 0.00 72 1013.1
20260504025013 44 246 0.0 0.0 0.00 0.00 0.00 71 1013.2
20260504024510 44 249 0.0 0.0 0.00 0.00 0.00 71 1013.2
20260504024009 45 250 0.0 0.0 0.00 0.00 0.00 71 1013.3
20260504023508 45 250 0.0 0.0 0.00 0.00 0.00 71 1013.3
20260504023008 45 250 0.0 0.0 0.00 0.00 0.00 69 1013.3
20260504022507 45 250 0.0 0.0 0.00 0.00 0.00 68 1013.2
20260504022007 45 250 0.0 0.0 0.00 0.00 0.00 67 1013.2
20260504021511 46 250 0.0 0.0 0.00 0.00 0.00 67 1013.2
20260504021006 46 250 0.0 0.0 0.00 0.00 0.00 66 1013.2
20260504020506 46 250 0.0 0.0 0.00 0.00 0.00 64 1013.2
20260504020005 47 250 0.0 0.0 0.00 0.00 0.00 63 1013.2
20260504015504 47 250 0.0 0.0 0.00 0.00 0.00 62 1013.2
20260504015004 47 250 0.0 0.0 0.00 0.00 0.00 62 1013.1
20260504014504 48 250 0.0 0.0 0.00 0.00 0.00 59 1013.1
20260504014104 48 250 0.0 0.0 0.00 0.00 0.00 61 1013.1
20260504013503 49 250 0.0 0.0 0.00 0.00 0.00 60 1013.0
20260504013004 49 250 0.0 0.0 0.00 0.00 0.00 57 1013.0
20260504012504 50 250 0.0 0.0 0.00 0.00 0.00 57 1013.0
20260504012001 50 250 0.0 0.0 0.00 0.00 0.00 55 1012.9
20260504011502 51 250 0.0 0.0 0.00 0.00 0.00 53 1013.0
20260504011004 51 250 0.0 0.0 0.00 0.00 0.00 53 1012.9
20260504010501 52 250 0.0 0.0 0.00 0.00 0.00 51 1012.8
20260504010101 52 250 0.0 0.0 0.00 0.00 0.00 52 1012.8
20260504005559 53 250 0.0 0.0 0.00 0.00 0.00 49 1012.8
20260504005102 53 250 0.0 0.0 0.00 0.00 0.00 49 1012.8
20260504004601 54 250 0.0 0.0 0.00 0.00 0.00 44 1012.7
20260504004058 54 250 0.0 0.0 0.00 0.00 0.00 43 1012.7
20260504003601 55 250 0.0 0.0 0.00 0.00 0.00 43 1012.6
20260504003057 55 257 0.0 0.0 0.00 0.00 0.00 42 1012.6
20260504002558 56 257 0.0 0.0 0.00 0.00 0.00 41 1012.5
20260504002057 56 257 0.0 0.0 0.00 0.00 0.00 40 1012.6
20260504001606 56 257 0.0 0.0 0.00 0.00 0.00 39 1012.6
20260504001057 56 232 0.0 0.0 0.00 0.00 0.00 39 1012.5
20260504000556 57 259 0.0 0.0 0.00 0.00 0.00 38 1012.4
20260504000058 57 277 0.0 0.0 0.00 0.00 0.00 38 1012.3
20260503235555 57 269 0.0 0.0 0.00 0.00 0.00 38 1012.2
20260503235055 58 262 0.0 0.0 0.00 0.00 0.00 38 1012.2
20260503234655 58 225 0.0 0.0 0.00 0.00 0.00 38 1012.2
20260503234054 58 292 0.0 0.0 0.00 0.00 0.00 36 1012.1
20260503233554 58 168 0.0 0.0 0.00 0.00 0.00 37 1012.1
20260503233059 59 226 0.0 0.0 0.00 0.00 0.00 37 1012.2
20260503232553 59 294 0.0 0.0 0.00 0.00 0.00 36 1012.1
20260503232053 59 297 0.0 0.0 0.00 0.00 0.00 35 1012.0
20260503231554 59 267 0.0 0.0 0.00 0.00 0.00 36 1012.0
20260503231053 59 288 0.0 0.0 0.00 0.00 0.00 35 1012.0
20260503230553 60 290 0.0 0.0 0.00 0.00 0.00 34 1012.0
20260503230052 60 176 0.0 0.0 0.00 0.00 0.00 34 1011.9
20260503225548 60 238 0.0 0.0 0.00 0.00 0.00 35 1011.9
20260503225050 60 211 0.0 0.0 0.00 0.00 0.00 34 1011.9
20260503224549 61 266 0.0 0.0 0.00 0.00 0.00 33 1012.0
20260503224048 61 332 0.0 0.0 0.00 0.00 0.00 34 1012.0
20260503223549 61 190 0.0 0.0 0.00 0.00 0.00 34 1011.9
20260503223050 61 192 0.0 0.0 0.00 0.00 0.00 33 1012.0
20260503223048 61 190 0.0 0.0 0.00 0.00 0.00 33 1012.0
20260503222548 62 235 0.0 0.0 0.00 0.00 0.00 34 1012.0
20260503222046 62 307 0.0 0.0 0.00 0.00 0.00 34 1011.9
20260503221548 61 239 0.0 0.0 0.00 0.00 0.00 35 1012.0
20260503221045 61 193 0.0 0.0 0.00 0.00 0.00 32 1011.9
20260503220545 61 338 0.0 0.0 0.00 0.00 0.00 33 1012.0
20260503220045 61 250 0.0 0.0 0.00 0.00 0.00 33 1012.1
20260503215540 62 184 0.0 0.0 0.00 0.00 0.00 32 1012.1
20260503215040 62 273 0.0 0.0 0.00 0.00 0.00 34 1012.0
20260503214540 62 188 0.0 0.0 0.00 0.00 0.00 33 1011.9
20260503214040 62 244 0.0 0.0 0.00 0.00 0.00 35 1011.9
20260503213539 62 329 0.0 0.0 0.00 0.00 0.00 34 1011.8
20260503213043 62 227 0.0 0.0 0.00 0.00 0.00 34 1012.0
20260503212537 62 230 0.0 0.0 0.00 0.00 0.00 35 1011.9
20260503212035 61 277 0.0 0.0 0.00 0.00 0.00 35 1011.9
20260503211537 61 217 0.0 0.0 0.00 0.00 0.00 38 1011.9
20260503211034 61 275 0.0 0.0 0.00 0.00 0.00 34 1011.9
20260503210536 60 247 0.0 0.0 0.00 0.00 0.00 36 1011.9
20260503210035 60 320 0.0 0.0 0.00 0.00 0.00 35 1012.0
20260503205504 61 300 0.0 0.0 0.00 0.00 0.00 34 1012.0
20260503205005 61 281 0.0 0.0 0.00 0.00 0.00 36 1012.0
20260503204502 60 294 0.0 0.0 0.00 0.00 0.00 37 1012.0
20260503204002 60 169 0.0 0.0 0.00 0.00 0.00 38 1012.0
20260503203502 60 254 0.0 0.0 0.00 0.00 0.00 35 1012.0
20260503203101 60 324 0.0 0.0 0.00 0.00 0.00 36 1012.1
20260503202558 59 324 0.0 0.0 0.00 0.00 0.00 35 1012.1
20260503202101 59 294 0.0 0.0 0.00 0.00 0.00 37 1012.1
20260503201557 59 244 0.0 0.0 0.00 0.00 0.00 36 1012.2
20260503201056 59 312 0.0 0.0 0.00 0.00 0.00 35 1012.2
20260503200558 60 295 0.0 0.0 0.00 0.00 0.00 36 1012.3
20260503200056 60 5 0.0 0.0 0.00 0.00 0.00 36 1012.4
20260503195556 59 340 0.0 0.0 0.00 0.00 0.00 35 1012.4
20260503195055 59 242 0.0 0.0 0.00 0.00 0.00 35 1012.3
20260503194556 59 317 0.0 0.0 0.00 0.00 0.00 36 1012.5
20260503194055 59 238 0.0 0.0 0.00 0.00 0.00 41 1012.5
20260503193556 59 220 0.0 0.0 0.00 0.00 0.00 35 1012.6
20260503193109 60 279 0.0 0.0 0.00 0.00 0.00 34 1012.6
20260503192524 60 170 0.0 0.0 0.00 0.00 0.00 34 1012.6
20260503192023 60 311 0.0 0.0 0.00 0.00 0.00 35 1012.7
20260503191523 60 271 0.0 0.0 0.00 0.00 0.00 38 1012.7
20260503191022 60 329 0.0 0.0 0.00 0.00 0.00 36 1012.8
20260503190523 60 288 0.0 0.0 0.00 0.00 0.00 37 1012.9
20260503190039 60 233 0.0 0.0 0.00 0.00 0.00 35 1013.0
20260503185621 60 222 0.0 0.0 0.00 0.00 0.00 35 1013.1
20260503185054 60 203 0.0 0.0 0.00 0.00 0.00 36 1013.1
20260503184556 60 188 0.0 0.0 0.00 0.00 0.00 35 1013.1
20260503184052 59 340 0.0 0.0 0.00 0.00 0.00 39 1013.2
20260503183552 59 319 0.0 0.0 0.00 0.00 0.00 34 1013.3
20260503183100 59 263 0.0 0.0 0.00 0.00 0.00 34 1013.3
20260503182546 59 340 0.0 0.0 0.00 0.00 0.00 40 1013.4
20260503182043 59 293 0.0 0.0 0.00 0.00 0.00 36 1013.5
20260503181543 59 292 0.0 0.0 0.00 0.00 0.00 35 1013.6
20260503181043 58 273 0.0 0.0 0.00 0.00 0.00 37 1013.5
20260503180543 58 196 0.0 0.0 0.00 0.00 0.00 38 1013.4
20260503180053 58 169 0.0 0.0 0.00 0.00 0.00 36 1013.5
20260503175543 59 298 0.0 0.0 0.00 0.00 0.00 35 1013.6
20260503175040 58 16 0.0 0.0 0.00 0.00 0.00 38 1013.6
20260503174539 58 313 0.0 0.0 0.00 0.00 0.00 38 1013.7
20260503174041 58 292 0.0 0.0 0.00 0.00 0.00 40 1013.7
20260503173541 58 238 0.0 0.0 0.00 0.00 0.00 36 1013.7
20260503173051 58 339 0.0 0.0 0.00 0.00 0.00 39 1013.8
20260503172537 57 295 0.0 0.0 0.00 0.00 0.00 41 1013.6
20260503172032 57 263 0.0 0.0 0.00 0.00 0.00 43 1013.9
20260503171539 56 11 0.0 0.0 0.00 0.00 0.00 42 1014.0
20260503171031 56 65 0.0 0.0 0.00 0.00 0.00 36 1013.9
20260503170531 56 277 0.0 0.0 0.00 0.00 0.00 39 1014.0
20260503151010 53 313 0.0 0.0 0.00 0.00 0.00 41 1015.1
20260503150504 53 253 0.0 0.0 0.00 0.00 0.00 40 1015.0
20260503131059 0 0.0 0.0 0.00 0.00 0.00 1015.4
20260503130558 0 0.0 0.0 0.00 0.00 0.00 1015.4
20260503130104 0 0.0 0.0 0.00 0.00 0.00 1015.4
20260503110553 41 321 0.0 0.0 0.00 0.00 0.00 65 1014.8